| time (UTC) | temp F | wind direction | speed MPH | gust MPH | rain 1hr in | rain 24hr in | rain mn in | humidity % | barometer mb |
| 20260508050057 | 65 | 34 | 1.0 | 5.0 | 0.00 | 0.00 | 0.00 | 81 | 1014.5 |
| 20260508045553 | 65 | 0 | 1.0 | 5.0 | 0.00 | 0.00 | 0.00 | 81 | 1014.6 |
| 20260508045053 | 65 | 42 | 0.0 | 4.0 | 0.00 | 0.00 | 0.00 | 81 | 1014.4 |
| 20260508044553 | 65 | 30 | 2.0 | 4.0 | 0.00 | 0.00 | 0.00 | 81 | 1014.5 |
| 20260508044054 | 65 | 50 | 0.0 | 5.0 | 0.00 | 0.00 | 0.00 | 81 | 1014.6 |
| 20260508043555 | 65 | 42 | 1.0 | 5.0 | 0.00 | 0.00 | 0.00 | 81 | 1014.6 |
| 20260508043055 | 65 | 17 | 1.0 | 4.0 | 0.00 | 0.00 | 0.00 | 81 | 1014.9 |
| 20260508042553 | 65 | 31 | 1.0 | 4.0 | 0.00 | 0.00 | 0.00 | 81 | 1015.1 |
| 20260508042053 | 65 | 26 | 1.0 | 3.0 | 0.00 | 0.00 | 0.00 | 81 | 1014.9 |
| 20260508041555 | 65 | 0 | 1.0 | 4.0 | 0.00 | 0.00 | 0.00 | 81 | 1015.0 |
| 20260508041053 | 65 | 9 | 1.0 | 4.0 | 0.00 | 0.00 | 0.00 | 81 | 1014.9 |
| 20260508040553 | 65 | 23 | 1.0 | 3.0 | 0.00 | 0.00 | 0.00 | 81 | 1014.9 |
| 20260508040058 | 65 | 0 | 0.0 | 3.0 | 0.00 | 0.00 | 0.00 | 81 | 1015.0 |
| 20260508035553 | 66 | 0 | 0.0 | 4.0 | 0.00 | 0.00 | 0.00 | 81 | 1015.1 |
| 20260508035053 | 65 | 0 | 0.0 | 4.0 | 0.00 | 0.00 | 0.00 | 80 | 1014.9 |
| 20260508034555 | 66 | 5 | 0.0 | 3.0 | 0.00 | 0.00 | 0.00 | 81 | 1014.8 |
| 20260508034052 | 66 | 0 | 0.0 | 4.0 | 0.00 | 0.00 | 0.00 | 80 | 1014.9 |
| 20260508033554 | 66 | 51 | 0.0 | 4.0 | 0.00 | 0.00 | 0.00 | 80 | 1014.2 |
| 20260508033059 | 66 | 0 | 2.0 | 4.0 | 0.00 | 0.00 | 0.00 | 80 | 1013.9 |
| 20260508032553 | 66 | 40 | 1.0 | 3.0 | 0.00 | 0.00 | 0.00 | 80 | 1013.9 |
| 20260508032054 | 66 | 42 | 1.0 | 3.0 | 0.00 | 0.00 | 0.00 | 80 | 1013.9 |
| 20260508031558 | 66 | 0 | 0.0 | 3.0 | 0.00 | 0.00 | 0.00 | 79 | 1014.1 |
| 20260508031053 | 66 | 0 | 0.0 | 6.0 | 0.00 | 0.00 | 0.00 | 79 | 1014.2 |
| 20260508030553 | 66 | 53 | 2.0 | 6.0 | 0.00 | 0.00 | 0.00 | 79 | 1014.2 |
| 20260508025556 | 66 | 34 | 1.0 | 5.0 | 0.00 | 0.00 | 0.00 | 78 | 1014.3 |
| 20260508025053 | 66 | 0 | 1.0 | 5.0 | 0.00 | 0.00 | 0.00 | 78 | 1014.2 |
| 20260508024617 | 66 | 41 | 2.0 | 7.0 | 0.00 | 0.00 | 0.00 | 78 | 1013.9 |
| 20260508024053 | 66 | 85 | 2.0 | 8.0 | 0.00 | 0.00 | 0.00 | 78 | 1013.6 |
| 20260508023552 | 66 | 86 | 4.0 | 8.0 | 0.00 | 0.00 | 0.00 | 78 | 1013.2 |
| 20260508023103 | 66 | 88 | 3.0 | 9.0 | 0.00 | 0.00 | 0.00 | 78 | 1013.3 |
| 20260508022556 | 66 | 98 | 4.0 | 9.0 | 0.00 | 0.00 | 0.00 | 78 | 1013.2 |
| 20260508022055 | 66 | 74 | 3.0 | 7.0 | 0.00 | 0.00 | 0.00 | 78 | 1013.5 |
| 20260508021606 | 66 | 93 | 3.0 | 6.0 | 0.00 | 0.00 | 0.00 | 78 | 1014.0 |
| 20260508021052 | 67 | 67 | 1.0 | 6.0 | 0.00 | 0.00 | 0.00 | 78 | 1014.4 |
| 20260508020552 | 67 | 28 | 2.0 | 6.0 | 0.00 | 0.00 | 0.00 | 78 | 1014.6 |
| 20260508020104 | 67 | 85 | 2.0 | 7.0 | 0.00 | 0.00 | 0.00 | 78 | 1014.6 |
| 20260508015552 | 67 | 37 | 2.0 | 7.0 | 0.00 | 0.00 | 0.00 | 78 | 1014.6 |
| 20260508015053 | 67 | 59 | 2.0 | 5.0 | 0.00 | 0.00 | 0.00 | 78 | 1014.4 |
| 20260508014557 | 67 | 43 | 2.0 | 4.0 | 0.00 | 0.00 | 0.00 | 78 | 1014.5 |
| 20260508014052 | 67 | 18 | 1.0 | 4.0 | 0.00 | 0.00 | 0.00 | 77 | 1014.6 |
| 20260508013553 | 67 | 32 | 2.0 | 5.0 | 0.00 | 0.00 | 0.00 | 77 | 1014.6 |
| 20260508013054 | 67 | 47 | 1.0 | 5.0 | 0.00 | 0.00 | 0.00 | 76 | 1014.6 |
| 20260508012554 | 67 | 350 | 1.0 | 6.0 | 0.00 | 0.00 | 0.00 | 76 | 1014.7 |
| 20260508012053 | 68 | 94 | 3.0 | 6.0 | 0.00 | 0.00 | 0.00 | 76 | 1014.7 |
| 20260508011602 | 68 | 48 | 2.0 | 6.0 | 0.00 | 0.00 | 0.00 | 76 | 1014.8 |
| 20260508011053 | 68 | 5 | 1.0 | 4.0 | 0.00 | 0.00 | 0.00 | 76 | 1014.9 |
| 20260508010553 | 68 | 313 | 1.0 | 5.0 | 0.00 | 0.00 | 0.00 | 76 | 1014.9 |
| 20260508010056 | 68 | 38 | 2.0 | 5.0 | 0.00 | 0.00 | 0.00 | 76 | 1014.6 |
| 20260508005555 | 68 | 69 | 1.0 | 6.0 | 0.00 | 0.00 | 0.00 | 76 | 1014.5 |
| 20260508005053 | 69 | 59 | 1.0 | 6.0 | 0.00 | 0.00 | 0.00 | 76 | 1014.4 |
| 20260508004559 | 69 | 63 | 1.0 | 5.0 | 0.00 | 0.00 | 0.00 | 75 | 1014.4 |
| 20260508004053 | 69 | 46 | 2.0 | 7.0 | 0.00 | 0.00 | 0.00 | 75 | 1014.5 |
| 20260508003552 | 69 | 32 | 2.0 | 7.0 | 0.00 | 0.00 | 0.00 | 75 | 1014.6 |
| 20260508003054 | 69 | 35 | 2.0 | 9.0 | 0.00 | 0.00 | 0.00 | 75 | 1014.6 |
| 20260508002553 | 69 | 22 | 3.0 | 9.0 | 0.00 | 0.00 | 0.00 | 74 | 1014.8 |
| 20260508002053 | 69 | 35 | 3.0 | 9.0 | 0.00 | 0.00 | 0.00 | 74 | 1014.7 |
| 20260508001552 | 69 | 20 | 2.0 | 11.0 | 0.00 | 0.00 | 0.00 | 74 | 1014.7 |
| 20260508001053 | 70 | 74 | 4.0 | 11.0 | 0.00 | 0.00 | 0.00 | 74 | 1015.0 |
| 20260508000554 | 70 | 338 | 4.0 | 11.0 | 0.00 | 0.00 | 0.00 | 74 | 1014.9 |
| 20260508000054 | 70 | 41 | 3.0 | 8.0 | 0.00 | 0.00 | 0.00 | 74 | 1014.9 |
| 20260507235553 | 70 | 11 | 3.0 | 13.0 | 0.00 | 0.00 | 0.00 | 73 | 1014.9 |
| 20260507235052 | 71 | 0 | 3.0 | 13.0 | 0.00 | 0.00 | 0.00 | 73 | 1014.8 |
| 20260507234557 | 71 | 47 | 6.0 | 13.0 | 0.00 | 0.00 | 0.00 | 72 | 1014.7 |
| 20260507234052 | 71 | 69 | 2.0 | 10.0 | 0.00 | 0.00 | 0.00 | 73 | 1014.8 |
| 20260507233552 | 71 | 47 | 5.0 | 10.0 | 0.00 | 0.00 | 0.00 | 72 | 1014.9 |
| 20260507233100 | 72 | 272 | 2.0 | 9.0 | 0.00 | 0.00 | 0.00 | 73 | 1015.1 |
| 20260507232555 | 72 | 355 | 3.0 | 12.0 | 0.00 | 0.00 | 0.00 | 72 | 1015.0 |
| 20260507232055 | 72 | 75 | 4.0 | 12.0 | 0.00 | 0.00 | 0.00 | 71 | 1015.2 |
| 20260507231559 | 73 | 344 | 4.0 | 12.0 | 0.00 | 0.00 | 0.00 | 71 | 1015.1 |
| 20260507231052 | 73 | 320 | 5.0 | 13.0 | 0.00 | 0.00 | 0.00 | 70 | 1014.8 |
| 20260507230555 | 74 | 53 | 4.0 | 13.0 | 0.00 | 0.00 | 0.00 | 70 | 1014.7 |
| 20260507230110 | 74 | 336 | 5.0 | 13.0 | 0.00 | 0.00 | 0.00 | 70 | 1014.7 |
| 20260507225553 | 74 | 5 | 4.0 | 9.0 | 0.00 | 0.00 | 0.00 | 71 | 1014.6 |
| 20260507225053 | 74 | 29 | 3.0 | 9.0 | 0.00 | 0.00 | 0.00 | 72 | 1014.6 |
| 20260507224556 | 74 | 17 | 3.0 | 9.0 | 0.00 | 0.00 | 0.00 | 72 | 1014.6 |
| 20260507224057 | 75 | 57 | 4.0 | 10.0 | 0.00 | 0.00 | 0.00 | 72 | 1014.5 |
| 20260507223553 | 75 | 86 | 3.0 | 10.0 | 0.00 | 0.00 | 0.00 | 72 | 1014.5 |
| 20260507223052 | 75 | 24 | 4.0 | 13.0 | 0.00 | 0.00 | 0.00 | 71 | 1014.6 |
| 20260507222553 | 75 | 342 | 5.0 | 13.0 | 0.00 | 0.00 | 0.00 | 71 | 1014.6 |
| 20260507222052 | 76 | 38 | 5.0 | 12.0 | 0.00 | 0.00 | 0.00 | 72 | 1014.5 |
| 20260507221558 | 76 | 42 | 4.0 | 9.0 | 0.00 | 0.00 | 0.00 | 71 | 1014.5 |
| 20260507221051 | 76 | 33 | 3.0 | 9.0 | 0.00 | 0.00 | 0.00 | 73 | 1014.6 |
| 20260507220552 | 76 | 29 | 1.0 | 8.0 | 0.00 | 0.00 | 0.00 | 72 | 1014.4 |
| 20260507220059 | 76 | 74 | 2.0 | 9.0 | 0.00 | 0.00 | 0.00 | 72 | 1014.3 |
| 20260507215556 | 76 | 81 | 2.0 | 10.0 | 0.00 | 0.00 | 0.00 | 73 | 1014.3 |
| 20260507215055 | 76 | 32 | 5.0 | 10.0 | 0.00 | 0.00 | 0.00 | 72 | 1014.1 |
| 20260507214557 | 76 | 72 | 4.0 | 9.0 | 0.00 | 0.00 | 0.00 | 72 | 1014.1 |
| 20260507214052 | 75 | 37 | 6.0 | 9.0 | 0.00 | 0.00 | 0.00 | 72 | 1014.0 |
| 20260507213553 | 75 | 90 | 3.0 | 12.0 | 0.00 | 0.00 | 0.00 | 73 | 1013.9 |
| 20260507213101 | 75 | 89 | 5.0 | 12.0 | 0.00 | 0.00 | 0.00 | 72 | 1014.2 |
| 20260507212552 | 75 | 67 | 6.0 | 12.0 | 0.00 | 0.00 | 0.00 | 71 | 1014.3 |
| 20260507212053 | 75 | 100 | 5.0 | 11.0 | 0.00 | 0.00 | 0.00 | 72 | 1014.2 |
| 20260507211605 | 75 | 51 | 4.0 | 9.0 | 0.00 | 0.00 | 0.00 | 72 | 1014.3 |
| 20260507211052 | 76 | 52 | 3.0 | 14.0 | 0.00 | 0.00 | 0.00 | 72 | 1014.3 |
| 20260507210557 | 76 | 34 | 4.0 | 14.0 | 0.00 | 0.00 | 0.00 | 71 | 1014.3 |
| 20260507210112 | 76 | 26 | 5.0 | 14.0 | 0.00 | 0.00 | 0.00 | 72 | 1014.3 |
| 20260507205553 | 76 | 62 | 5.0 | 11.0 | 0.00 | 0.00 | 0.00 | 72 | 1014.4 |
| 20260507205053 | 76 | 65 | 4.0 | 11.0 | 0.00 | 0.00 | 0.00 | 72 | 1014.6 |
| 20260507204601 | 76 | 5 | 3.0 | 11.0 | 0.00 | 0.00 | 0.00 | 72 | 1014.7 |
| 20260507204053 | 76 | 38 | 5.0 | 11.0 | 0.00 | 0.00 | 0.00 | 72 | 1014.8 |
| 20260507203553 | 76 | 84 | 4.0 | 15.0 | 0.00 | 0.00 | 0.00 | 72 | 1014.9 |
| 20260507203125 | 76 | 57 | 6.0 | 15.0 | 0.00 | 0.00 | 0.00 | 72 | 1015.0 |
| 20260507202552 | 75 | 315 | 5.0 | 13.0 | 0.00 | 0.00 | 0.00 | 73 | 1015.2 |
| 20260507202057 | 75 | 49 | 3.0 | 13.0 | 0.00 | 0.00 | 0.00 | 73 | 1015.3 |
| 20260507201555 | 75 | 76 | 5.0 | 12.0 | 0.00 | 0.00 | 0.00 | 72 | 1015.3 |
| 20260507201053 | 75 | 44 | 4.0 | 12.0 | 0.00 | 0.00 | 0.00 | 73 | 1015.3 |
| 20260507200554 | 75 | 36 | 5.0 | 12.0 | 0.00 | 0.00 | 0.00 | 72 | 1015.3 |
| 20260507195552 | 75 | 34 | 3.0 | 11.0 | 0.00 | 0.00 | 0.00 | 72 | 1015.3 |
| 20260507195057 | 75 | 45 | 4.0 | 12.0 | 0.00 | 0.00 | 0.00 | 72 | 1015.3 |
| 20260507194619 | 75 | 52 | 5.0 | 13.0 | 0.00 | 0.00 | 0.00 | 73 | 1015.3 |
| 20260507194052 | 75 | 23 | 5.0 | 13.0 | 0.00 | 0.00 | 0.00 | 72 | 1015.3 |
| 20260507193553 | 74 | 44 | 5.0 | 14.0 | 0.00 | 0.00 | 0.00 | 73 | 1015.3 |
| 20260507193058 | 74 | 121 | 4.0 | 15.0 | 0.00 | 0.00 | 0.00 | 75 | 1015.5 |
| 20260507192552 | 73 | 76 | 5.0 | 15.0 | 0.00 | 0.00 | 0.00 | 74 | 1015.6 |
| 20260507192053 | 73 | 59 | 5.0 | 15.0 | 0.00 | 0.00 | 0.00 | 74 | 1015.6 |
| 20260507191553 | 73 | 51 | 4.0 | 11.0 | 0.00 | 0.00 | 0.00 | 74 | 1015.7 |
| 20260507191055 | 73 | 59 | 5.0 | 13.0 | 0.00 | 0.00 | 0.00 | 76 | 1015.6 |
| 20260507190552 | 72 | 35 | 6.0 | 13.0 | 0.00 | 0.00 | 0.00 | 75 | 1015.7 |
| 20260507190059 | 71 | 40 | 5.0 | 12.0 | 0.00 | 0.00 | 0.00 | 76 | 1015.8 |
| 20260507185552 | 71 | 52 | 4.0 | 11.0 | 0.00 | 0.00 | 0.00 | 76 | 1015.9 |
| 20260507185052 | 71 | 76 | 5.0 | 11.0 | 0.00 | 0.00 | 0.00 | 76 | 1016.0 |
| 20260507184554 | 70 | 5 | 3.0 | 9.0 | 0.00 | 0.00 | 0.00 | 77 | 1016.1 |
| 20260507184052 | 69 | 69 | 3.0 | 8.0 | 0.00 | 0.00 | 0.00 | 78 | 1016.4 |
| 20260507183553 | 69 | 90 | 3.0 | 8.0 | 0.00 | 0.00 | 0.00 | 79 | 1016.5 |
| 20260507183056 | 69 | 71 | 4.0 | 12.0 | 0.00 | 0.00 | 0.00 | 78 | 1016.5 |
| 20260507182553 | 68 | 53 | 5.0 | 13.0 | 0.00 | 0.00 | 0.00 | 78 | 1016.7 |
| 20260507182053 | 68 | 89 | 6.0 | 13.0 | 0.00 | 0.00 | 0.00 | 78 | 1016.7 |
| 20260507181553 | 68 | 20 | 3.0 | 11.0 | 0.00 | 0.00 | 0.00 | 79 | 1016.9 |
| 20260507181053 | 68 | 28 | 2.0 | 11.0 | 0.00 | 0.00 | 0.00 | 79 | 1016.9 |
| 20260507180553 | 68 | 249 | 4.0 | 12.0 | 0.00 | 0.00 | 0.00 | 78 | 1017.0 |
| 20260507180053 | 68 | 304 | 3.0 | 12.0 | 0.00 | 0.00 | 0.00 | 78 | 1017.1 |
| 20260507175552 | 68 | 324 | 5.0 | 12.0 | 0.00 | 0.00 | 0.00 | 78 | 1017.1 |
| 20260507175053 | 68 | 76 | 6.0 | 12.0 | 0.00 | 0.00 | 0.00 | 78 | 1017.1 |
| 20260507174558 | 68 | 44 | 4.0 | 16.0 | 0.00 | 0.00 | 0.00 | 79 | 1017.3 |
| 20260507174053 | 68 | 59 | 5.0 | 16.0 | 0.00 | 0.00 | 0.00 | 80 | 1017.3 |
| 20260507173552 | 67 | 36 | 6.0 | 16.0 | 0.00 | 0.00 | 0.00 | 80 | 1017.3 |
| 20260507173128 | 67 | 73 | 5.0 | 15.0 | 0.00 | 0.00 | 0.00 | 80 | 1017.2 |
| 20260507172553 | 67 | 47 | 6.0 | 15.0 | 0.00 | 0.00 | 0.00 | 80 | 1017.2 |
| 20260507172052 | 67 | 40 | 5.0 | 13.0 | 0.00 | 0.00 | 0.00 | 80 | 1017.3 |
| 20260507171558 | 67 | 71 | 5.0 | 13.0 | 0.00 | 0.00 | 0.00 | 80 | 1017.2 |
| 20260507171053 | 67 | 63 | 5.0 | 13.0 | 0.00 | 0.00 | 0.00 | 80 | 1017.3 |
| 20260507170552 | 67 | 50 | 5.0 | 13.0 | 0.00 | 0.00 | 0.00 | 80 | 1017.4 |
| 20260507170105 | 67 | 26 | 4.0 | 13.0 | 0.00 | 0.00 | 0.00 | 80 | 1017.4 |
| 20260507165553 | 67 | 35 | 5.0 | 13.0 | 0.00 | 0.00 | 0.00 | 81 | 1017.5 |
| 20260507165054 | 66 | 14 | 6.0 | 13.0 | 0.00 | 0.00 | 0.00 | 81 | 1017.6 |
| 20260507164559 | 66 | 11 | 6.0 | 12.0 | 0.00 | 0.00 | 0.00 | 81 | 1017.4 |
| 20260507164053 | 66 | 40 | 6.0 | 12.0 | 0.00 | 0.00 | 0.00 | 81 | 1017.3 |
| 20260507163552 | 66 | 344 | 5.0 | 12.0 | 0.00 | 0.00 | 0.00 | 82 | 1017.2 |
| 20260507163059 | 65 | 33 | 4.0 | 16.0 | 0.00 | 0.00 | 0.00 | 82 | 1017.2 |
| 20260507162555 | 65 | 22 | 9.0 | 16.0 | 0.00 | 0.00 | 0.00 | 82 | 1017.3 |
| 20260507162053 | 65 | 56 | 5.0 | 16.0 | 0.00 | 0.00 | 0.00 | 83 | 1017.3 |
| 20260507161613 | 65 | 355 | 6.0 | 15.0 | 0.00 | 0.00 | 0.00 | 83 | 1017.3 |
| 20260507161052 | 65 | 331 | 5.0 | 14.0 | 0.00 | 0.00 | 0.00 | 83 | 1017.3 |
| 20260507160554 | 64 | 38 | 6.0 | 12.0 | 0.00 | 0.00 | 0.00 | 84 | 1017.3 |
| 20260507155552 | 64 | 5 | 5.0 | 12.0 | 0.00 | 0.00 | 0.00 | 85 | 1017.4 |
| 20260507155052 | 63 | 319 | 4.0 | 12.0 | 0.00 | 0.00 | 0.00 | 85 | 1017.4 |
| 20260507154558 | 63 | 22 | 5.0 | 11.0 | 0.00 | 0.00 | 0.00 | 85 | 1017.4 |
| 20260507154052 | 63 | 34 | 3.0 | 12.0 | 0.00 | 0.00 | 0.00 | 85 | 1017.4 |
| 20260507153552 | 63 | 329 | 3.0 | 12.0 | 0.00 | 0.00 | 0.00 | 85 | 1017.4 |
| 20260507153057 | 63 | 344 | 4.0 | 11.0 | 0.00 | 0.00 | 0.00 | 85 | 1017.4 |
| 20260507152553 | 63 | 65 | 5.0 | 11.0 | 0.00 | 0.00 | 0.00 | 85 | 1017.6 |
| 20260507152053 | 63 | 62 | 4.0 | 10.0 | 0.00 | 0.00 | 0.00 | 85 | 1017.5 |
| 20260507151555 | 63 | 36 | 3.0 | 12.0 | 0.00 | 0.00 | 0.00 | 85 | 1017.2 |
| 20260507151051 | 63 | 84 | 6.0 | 13.0 | 0.00 | 0.00 | 0.00 | 85 | 1017.1 |
| 20260507150552 | 63 | 42 | 6.0 | 13.0 | 0.00 | 0.00 | 0.00 | 85 | 1017.1 |
| 20260507150057 | 63 | 46 | 4.0 | 14.0 | 0.00 | 0.00 | 0.00 | 85 | 1017.1 |
| 20260507145552 | 63 | 24 | 7.0 | 14.0 | 0.00 | 0.00 | 0.00 | 85 | 1017.2 |
| 20260507145051 | 63 | 5 | 6.0 | 12.0 | 0.00 | 0.00 | 0.00 | 86 | 1017.0 |
| 20260507144608 | 63 | 90 | 6.0 | 12.0 | 0.00 | 0.00 | 0.00 | 86 | 1016.8 |
| 20260507144052 | 63 | 67 | 2.0 | 14.0 | 0.00 | 0.00 | 0.00 | 87 | 1016.7 |
| 20260507143552 | 63 | 39 | 5.0 | 14.0 | 0.00 | 0.00 | 0.00 | 87 | 1016.8 |
| 20260507143103 | 62 | 38 | 5.0 | 17.0 | 0.00 | 0.00 | 0.00 | 87 | 1016.7 |
| 20260507142552 | 62 | 57 | 7.0 | 17.0 | 0.00 | 0.00 | 0.00 | 87 | 1016.8 |
| 20260507142053 | 62 | 86 | 7.0 | 17.0 | 0.00 | 0.00 | 0.00 | 87 | 1016.6 |
| 20260507141600 | 62 | 54 | 4.0 | 17.0 | 0.00 | 0.00 | 0.00 | 88 | 1016.3 |
| 20260507141053 | 62 | 99 | 4.0 | 17.0 | 0.00 | 0.00 | 0.00 | 88 | 1016.1 |
| 20260507140554 | 62 | 78 | 8.0 | 18.0 | 0.00 | 0.00 | 0.00 | 88 | 1016.1 |
| 20260507140056 | 62 | 9 | 7.0 | 18.0 | 0.00 | 0.00 | 0.00 | 88 | 1016.0 |
| 20260507135553 | 62 | 65 | 7.0 | 18.0 | 0.00 | 0.00 | 0.00 | 89 | 1016.1 |
| 20260507135053 | 62 | 96 | 5.0 | 16.0 | 0.00 | 0.00 | 0.00 | 89 | 1016.1 |
| 20260507134559 | 62 | 298 | 6.0 | 13.0 | 0.00 | 0.00 | 0.00 | 89 | 1016.4 |
| 20260507134051 | 62 | 25 | 4.0 | 13.0 | 0.00 | 0.00 | 0.00 | 89 | 1016.6 |
| 20260507133552 | 62 | 332 | 3.0 | 13.0 | 0.00 | 0.00 | 0.00 | 89 | 1016.7 |
| 20260507133142 | 62 | 343 | 4.0 | 13.0 | 0.00 | 0.00 | 0.00 | 89 | 1016.7 |
| 20260507132551 | 62 | 17 | 5.0 | 17.0 | 0.00 | 0.00 | 0.00 | 89 | 1016.6 |
| 20260507132051 | 62 | 327 | 4.0 | 17.0 | 0.00 | 0.00 | 0.00 | 89 | 1016.5 |
| 20260507131558 | 62 | 32 | 5.0 | 14.0 | 0.00 | 0.00 | 0.00 | 88 | 1016.4 |
| 20260507131052 | 62 | 86 | 7.0 | 14.0 | 0.00 | 0.00 | 0.00 | 88 | 1016.6 |
| 20260507130556 | 62 | 321 | 4.0 | 11.0 | 0.00 | 0.00 | 0.00 | 88 | 1016.5 |
| 20260507130103 | 63 | 344 | 4.0 | 17.0 | 0.00 | 0.00 | 0.00 | 88 | 1016.5 |
| 20260507125552 | 63 | 352 | 7.0 | 17.0 | 0.00 | 0.00 | 0.00 | 88 | 1016.6 |
| 20260507125052 | 63 | 66 | 5.0 | 16.0 | 0.00 | 0.00 | 0.00 | 88 | 1016.3 |
| 20260507124606 | 63 | 24 | 4.0 | 16.0 | 0.00 | 0.00 | 0.00 | 88 | 1016.2 |
| 20260507124053 | 63 | 57 | 6.0 | 16.0 | 0.00 | 0.00 | 0.00 | 87 | 1016.1 |
| 20260507123553 | 63 | 40 | 6.0 | 13.0 | 0.00 | 0.00 | 0.00 | 87 | 1016.1 |
| 20260507123053 | 63 | 44 | 4.0 | 12.0 | 0.00 | 0.00 | 0.00 | 87 | 1016.3 |
| 20260507122552 | 63 | 344 | 4.0 | 13.0 | 0.00 | 0.00 | 0.00 | 87 | 1016.6 |
| 20260507122052 | 63 | 35 | 6.0 | 13.0 | 0.00 | 0.00 | 0.00 | 87 | 1016.7 |
| 20260507121553 | 63 | 44 | 6.0 | 15.0 | 0.00 | 0.00 | 0.00 | 87 | 1016.5 |
| 20260507121052 | 63 | 56 | 2.0 | 15.0 | 0.00 | 0.00 | 0.00 | 87 | 1016.6 |
| 20260507120551 | 63 | 41 | 3.0 | 11.0 | 0.00 | 0.00 | 0.00 | 87 | 1016.4 |
| 20260507120052 | 63 | 336 | 4.0 | 11.0 | 0.00 | 0.00 | 0.00 | 86 | 1016.2 |
| 20260507115552 | 63 | 24 | 2.0 | 10.0 | 0.00 | 0.00 | 0.00 | 86 | 1016.0 |
| 20260507115052 | 63 | 350 | 2.0 | 7.0 | 0.00 | 0.00 | 0.00 | 86 | 1016.0 |
| 20260507114609 | 63 | 352 | 2.0 | 11.0 | 0.00 | 0.00 | 0.00 | 86 | 1015.6 |
| 20260507114052 | 63 | 22 | 2.0 | 11.0 | 0.00 | 0.00 | 0.00 | 86 | 1015.5 |
| 20260507113553 | 63 | 45 | 4.0 | 11.0 | 0.00 | 0.00 | 0.00 | 86 | 1015.3 |
| 20260507113054 | 64 | 9 | 5.0 | 11.0 | 0.00 | 0.00 | 0.00 | 86 | 1015.3 |
| 20260507112552 | 64 | 329 | 4.0 | 11.0 | 0.00 | 0.00 | 0.00 | 86 | 1015.4 |
| 20260507112057 | 64 | 360 | 2.0 | 12.0 | 0.00 | 0.00 | 0.00 | 86 | 1015.4 |
| 20260507111555 | 64 | 21 | 4.0 | 12.0 | 0.00 | 0.00 | 0.00 | 86 | 1015.0 |
| 20260507111126 | 64 | 64 | 3.0 | 11.0 | 0.00 | 0.00 | 0.00 | 86 | 1015.2 |
| 20260507110555 | 64 | 47 | 2.0 | 12.0 | 0.00 | 0.00 | 0.00 | 86 | 1015.2 |
| 20260507110054 | 64 | 13 | 3.0 | 12.0 | 0.00 | 0.00 | 0.00 | 86 | 1015.2 |
| 20260507105552 | 64 | 90 | 2.0 | 11.0 | 0.00 | 0.00 | 0.00 | 86 | 1015.3 |
| 20260507105053 | 64 | 76 | 3.0 | 10.0 | 0.00 | 0.00 | 0.00 | 86 | 1015.1 |
| 20260507104553 | 64 | 10 | 3.0 | 13.0 | 0.00 | 0.00 | 0.00 | 86 | 1015.2 |
| 20260507104053 | 64 | 51 | 4.0 | 13.0 | 0.00 | 0.00 | 0.00 | 86 | 1014.9 |
| 20260507103553 | 64 | 27 | 2.0 | 10.0 | 0.00 | 0.00 | 0.00 | 86 | 1015.2 |
| 20260507103056 | 64 | 67 | 1.0 | 8.0 | 0.00 | 0.00 | 0.00 | 86 | 1015.2 |
| 20260507102552 | 64 | 39 | 2.0 | 8.0 | 0.00 | 0.00 | 0.00 | 86 | 1014.7 |
| 20260507102053 | 64 | 41 | 3.0 | 11.0 | 0.00 | 0.00 | 0.00 | 86 | 1014.6 |
| 20260507101554 | 64 | 39 | 4.0 | 11.0 | 0.00 | 0.00 | 0.00 | 85 | 1015.1 |
| 20260507101052 | 64 | 19 | 4.0 | 10.0 | 0.00 | 0.00 | 0.00 | 85 | 1015.0 |
| 20260507100555 | 64 | 46 | 3.0 | 8.0 | 0.00 | 0.00 | 0.00 | 85 | 1015.1 |
| 20260507100058 | 64 | 318 | 3.0 | 10.0 | 0.00 | 0.00 | 0.00 | 85 | 1014.9 |
| 20260507095552 | 64 | 45 | 2.0 | 10.0 | 0.00 | 0.00 | 0.00 | 85 | 1015.0 |
| 20260507095052 | 64 | 19 | 2.0 | 8.0 | 0.00 | 0.00 | 0.00 | 85 | 1014.9 |
| 20260507094559 | 64 | 335 | 3.0 | 8.0 | 0.00 | 0.00 | 0.00 | 85 | 1014.5 |
| 20260507094054 | 64 | 330 | 1.0 | 7.0 | 0.00 | 0.00 | 0.00 | 85 | 1014.6 |
| 20260507093553 | 64 | 62 | 1.0 | 8.0 | 0.00 | 0.00 | 0.00 | 85 | 1014.7 |
| 20260507093052 | 64 | 24 | 3.0 | 8.0 | 0.00 | 0.00 | 0.00 | 85 | 1014.6 |
| 20260507092554 | 64 | 65 | 2.0 | 8.0 | 0.00 | 0.00 | 0.00 | 85 | 1014.5 |
| 20260507092054 | 64 | 30 | 2.0 | 6.0 | 0.00 | 0.00 | 0.00 | 85 | 1014.4 |
| 20260507091554 | 64 | 32 | 2.0 | 7.0 | 0.00 | 0.00 | 0.00 | 85 | 1014.4 |
| 20260507091052 | 64 | 5 | 3.0 | 7.0 | 0.00 | 0.00 | 0.00 | 85 | 1014.4 |
| 20260507090552 | 64 | 17 | 2.0 | 11.0 | 0.00 | 0.00 | 0.00 | 85 | 1014.4 |
| 20260507090054 | 64 | 64 | 2.0 | 11.0 | 0.00 | 0.00 | 0.00 | 85 | 1014.3 |
| 20260507085551 | 64 | 78 | 2.0 | 7.0 | 0.00 | 0.00 | 0.00 | 85 | 1014.3 |
| 20260507085052 | 64 | 35 | 2.0 | 7.0 | 0.00 | 0.00 | 0.00 | 85 | 1014.1 |
| 20260507084559 | 64 | 0 | 1.0 | 9.0 | 0.00 | 0.00 | 0.00 | 85 | 1014.1 |
| 20260507084052 | 64 | 16 | 4.0 | 10.0 | 0.00 | 0.00 | 0.00 | 85 | 1014.0 |
| 20260507083551 | 64 | 21 | 3.0 | 12.0 | 0.00 | 0.00 | 0.00 | 85 | 1014.0 |
| 20260507083057 | 64 | 5 | 4.0 | 12.0 | 0.00 | 0.00 | 0.00 | 85 | 1013.9 |
| 20260507082552 | 64 | 61 | 3.0 | 10.0 | 0.00 | 0.00 | 0.00 | 85 | 1014.2 |
| 20260507082052 | 64 | 0 | 2.0 | 10.0 | 0.00 | 0.00 | 0.00 | 85 | 1014.1 |
| 20260507081555 | 64 | 66 | 4.0 | 9.0 | 0.00 | 0.00 | 0.00 | 84 | 1014.2 |
| 20260507081055 | 64 | 37 | 4.0 | 14.0 | 0.00 | 0.00 | 0.00 | 84 | 1014.3 |
| 20260507080552 | 64 | 48 | 5.0 | 14.0 | 0.00 | 0.00 | 0.00 | 84 | 1014.1 |
| 20260507080056 | 64 | 61 | 3.0 | 12.0 | 0.00 | 0.00 | 0.00 | 84 | 1014.2 |
| 20260507075554 | 64 | 349 | 6.0 | 12.0 | 0.00 | 0.00 | 0.00 | 84 | 1014.5 |
| 20260507075052 | 64 | 49 | 3.0 | 11.0 | 0.00 | 0.00 | 0.00 | 84 | 1014.3 |
| 20260507074557 | 64 | 35 | 6.0 | 11.0 | 0.00 | 0.00 | 0.00 | 84 | 1014.4 |
| 20260507074051 | 64 | 52 | 2.0 | 9.0 | 0.00 | 0.00 | 0.00 | 84 | 1014.5 |
| 20260507073551 | 64 | 47 | 4.0 | 11.0 | 0.00 | 0.00 | 0.00 | 84 | 1014.6 |
| 20260507073102 | 64 | 67 | 5.0 | 11.0 | 0.00 | 0.00 | 0.00 | 84 | 1014.6 |
| 20260507072552 | 64 | 52 | 2.0 | 10.0 | 0.00 | 0.00 | 0.00 | 84 | 1014.5 |
| 20260507072053 | 64 | 5 | 2.0 | 10.0 | 0.00 | 0.00 | 0.00 | 84 | 1014.5 |
| 20260507071556 | 64 | 5 | 3.0 | 10.0 | 0.00 | 0.00 | 0.00 | 84 | 1014.6 |
| 20260507071054 | 64 | 343 | 2.0 | 11.0 | 0.00 | 0.00 | 0.00 | 84 | 1014.6 |
| 20260507070552 | 64 | 63 | 3.0 | 11.0 | 0.00 | 0.00 | 0.00 | 84 | 1014.4 |
| 20260507070104 | 64 | 58 | 3.0 | 10.0 | 0.00 | 0.00 | 0.00 | 84 | 1014.6 |
| 20260507065556 | 64 | 46 | 3.0 | 11.0 | 0.00 | 0.00 | 0.00 | 83 | 1014.5 |
| 20260507065052 | 65 | 26 | 4.0 | 11.0 | 0.00 | 0.00 | 0.00 | 83 | 1014.5 |
| 20260507064559 | 65 | 66 | 3.0 | 11.0 | 0.00 | 0.00 | 0.00 | 83 | 1014.7 |
| 20260507064052 | 65 | 35 | 6.0 | 13.0 | 0.00 | 0.00 | 0.00 | 83 | 1014.8 |
| 20260507063551 | 65 | 63 | 5.0 | 13.0 | 0.00 | 0.00 | 0.00 | 83 | 1014.5 |
| 20260507063054 | 65 | 22 | 4.0 | 11.0 | 0.00 | 0.00 | 0.00 | 83 | 1014.6 |
| 20260507062552 | 65 | 17 | 5.0 | 15.0 | 0.00 | 0.00 | 0.00 | 83 | 1014.8 |
| 20260507062052 | 65 | 27 | 5.0 | 16.0 | 0.00 | 0.00 | 0.00 | 83 | 1014.7 |
| 20260507061557 | 65 | 27 | 8.0 | 16.0 | 0.00 | 0.00 | 0.00 | 83 | 1014.6 |
| 20260507061051 | 65 | 84 | 5.0 | 13.0 | 0.00 | 0.00 | 0.00 | 83 | 1014.9 |
| 20260507060553 | 65 | 118 | 4.0 | 12.0 | 0.00 | 0.00 | 0.00 | 83 | 1014.8 |
| 20260507060100 | 65 | 64 | 4.0 | 12.0 | 0.00 | 0.00 | 0.00 | 83 | 1014.8 |
| 20260507055556 | 65 | 349 | 4.0 | 12.0 | 0.00 | 0.00 | 0.00 | 83 | 1014.6 |
| 20260507055054 | 65 | 11 | 4.0 | 12.0 | 0.00 | 0.00 | 0.00 | 83 | 1014.6 |
| 20260507054553 | 65 | 338 | 3.0 | 12.0 | 0.00 | 0.00 | 0.00 | 83 | 1014.7 |
| 20260507054052 | 65 | 67 | 4.0 | 13.0 | 0.00 | 0.00 | 0.00 | 83 | 1014.6 |
| 20260507053552 | 65 | 313 | 5.0 | 13.0 | 0.00 | 0.00 | 0.00 | 83 | 1014.6 |
| 20260507053115 | 65 | 25 | 4.0 | 13.0 | 0.00 | 0.00 | 0.00 | 83 | 1014.4 |
| 20260507052551 | 65 | 38 | 3.0 | 13.0 | 0.00 | 0.00 | 0.00 | 83 | 1014.4 |
| 20260507052052 | 65 | 50 | 4.0 | 11.0 | 0.00 | 0.00 | 0.00 | 83 | 1014.5 |
| 20260507051558 | 65 | 13 | 4.0 | 11.0 | 0.00 | 0.00 | 0.00 | 83 | 1014.5 |
| 20260507051050 | 65 | 47 | 2.0 | 12.0 | 0.00 | 0.00 | 0.00 | 83 | 1014.2 |
| 20260507050552 | 65 | 62 | 4.0 | 14.0 | 0.00 | 0.00 | 0.00 | 83 | 1014.3 |